Time,TemperatureF,DewpointF,PressureIn,WindDirection,WindDirectionDegrees,WindSpeedMPH,WindSpeedGustMPH,Humidity,HourlyPrecipIn,Conditions,Clouds,dailyrainin,SoftwareType,DateUTC
2013-01-22 00:00:00,15.7,11.3,30.37,ENE,76,0.0,0.0,82,0.00,,,-99.99,Meteorologica,2013-01-22 06:00:00,
2013-01-22 00:05:00,15.9,11.5,30.37,ENE,76,0.0,0.0,82,0.00,,,-99.99,Meteorologica,2013-01-22 06:05:00,
2013-01-22 00:10:00,16.0,11.8,30.37,ENE,76,0.0,0.0,83,0.00,,,-99.99,Meteorologica,2013-01-22 06:10:00,
2013-01-22 00:15:00,16.1,11.7,30.37,ENE,76,0.0,0.0,82,0.00,,,-99.99,Meteorologica,2013-01-22 06:15:00,
2013-01-22 00:20:00,16.2,11.8,30.38,ENE,76,0.0,0.0,82,0.00,,,-99.99,Meteorologica,2013-01-22 06:20:00,
2013-01-22 00:26:00,16.3,12.0,30.38,ENE,76,0.0,0.0,83,0.00,,,-99.99,Meteorologica,2013-01-22 06:26:00,
2013-01-22 00:31:00,16.3,12.0,30.38,ENE,76,0.0,0.0,83,0.00,,,-99.99,Meteorologica,2013-01-22 06:31:00,
2013-01-22 00:36:00,16.3,12.0,30.37,ENE,76,0.0,0.0,83,0.00,,,-99.99,Meteorologica,2013-01-22 06:36:00,
2013-01-22 00:41:00,16.3,12.1,30.36,ENE,76,0.0,0.0,83,0.00,,,-99.99,Meteorologica,2013-01-22 06:41:00,
2013-01-22 00:46:00,16.3,12.2,30.37,ENE,76,0.0,0.0,83,0.00,,,-99.99,Meteorologica,2013-01-22 06:46:00,
2013-01-22 00:51:00,16.3,12.3,30.38,ENE,76,0.0,0.0,83,0.00,,,-99.99,Meteorologica,2013-01-22 06:51:00,
2013-01-22 00:56:00,16.3,12.3,30.38,ENE,76,0.0,0.0,84,0.00,,,-99.99,Meteorologica,2013-01-22 06:56:00,
2013-01-22 01:01:00,16.3,12.5,30.38,ENE,76,0.0,0.0,84,0.00,,,-99.99,Meteorologica,2013-01-22 07:01:00,
2013-01-22 01:06:00,16.3,12.5,30.38,ENE,76,0.0,0.0,84,0.00,,,-99.99,Meteorologica,2013-01-22 07:06:00,
2013-01-22 01:11:00,16.3,12.5,30.38,ENE,76,0.0,0.0,84,0.00,,,-99.99,Meteorologica,2013-01-22 07:11:00,
2013-01-22 01:16:00,16.4,12.5,30.38,ENE,76,0.0,0.0,84,0.00,,,-99.99,Meteorologica,2013-01-22 07:16:00,
2013-01-22 01:21:00,16.4,12.5,30.38,ENE,76,0.0,0.0,84,0.00,,,-99.99,Meteorologica,2013-01-22 07:21:00,
2013-01-22 01:26:00,16.4,12.7,30.38,ENE,76,0.0,0.0,85,0.00,,,-99.99,Meteorologica,2013-01-22 07:26:00,
2013-01-22 01:31:00,16.5,12.7,30.38,ENE,76,0.0,0.0,84,0.00,,,-99.99,Meteorologica,2013-01-22 07:31:00,
2013-01-22 01:36:00,16.5,12.6,30.38,ENE,76,0.0,0.0,84,0.00,,,-99.99,Meteorologica,2013-01-22 07:36:00,
2013-01-22 01:41:00,16.5,12.6,30.38,ENE,76,0.0,0.0,84,0.00,,,-99.99,Meteorologica,2013-01-22 07:41:00,
2013-01-22 01:46:00,16.5,12.6,30.37,ESE,102,1.6,6.5,84,0.00,,,-99.99,Meteorologica,2013-01-22 07:46:00,
2013-01-22 01:51:00,16.4,12.7,30.37,ESE,105,0.0,0.0,85,0.00,,,-99.99,Meteorologica,2013-01-22 07:51:00,
2013-01-22 01:56:00,16.4,12.4,30.38,ESE,105,0.0,0.0,84,0.00,,,-99.99,Meteorologica,2013-01-22 07:56:00,
2013-01-22 02:01:00,16.4,12.4,30.38,ESE,105,0.0,0.0,84,0.00,,,-99.99,Meteorologica,2013-01-22 08:01:00,
2013-01-22 02:06:00,16.4,12.4,30.37,ESE,117,1.3,4.8,84,0.00,,,-99.99,Meteorologica,2013-01-22 08:06:00,
2013-01-22 02:11:00,16.4,12.4,30.37,ESE,112,0.2,4.9,84,0.00,,,-99.99,Meteorologica,2013-01-22 08:11:00,
2013-01-22 02:16:00,16.4,12.5,30.37,ESE,110,0.0,0.0,84,0.00,,,-99.99,Meteorologica,2013-01-22 08:16:00,
2013-01-22 02:21:00,16.5,12.6,30.38,SSE,155,0.0,4.6,84,0.00,,,-99.99,Meteorologica,2013-01-22 08:21:00,
2013-01-22 02:26:00,16.5,12.6,30.37,SSE,155,0.0,0.0,84,0.00,,,-99.99,Meteorologica,2013-01-22 08:26:00,
2013-01-22 02:31:00,16.4,12.3,30.37,SSE,155,0.0,0.0,83,0.00,,,-99.99,Meteorologica,2013-01-22 08:31:00,
2013-01-22 02:36:00,16.5,12.4,30.37,SSE,155,0.0,0.0,83,0.00,,,-99.99,Meteorologica,2013-01-22 08:36:00,
2013-01-22 02:41:00,16.5,12.2,30.37,SSE,152,0.0,0.0,83,0.00,,,-99.99,Meteorologica,2013-01-22 08:41:00,
2013-01-22 02:46:00,16.4,11.9,30.38,South,189,0.0,0.0,82,0.00,,,-99.99,Meteorologica,2013-01-22 08:46:00,
2013-01-22 02:51:00,16.5,11.8,30.37,SSE,163,0.3,3.0,81,0.00,,,-99.99,Meteorologica,2013-01-22 08:51:00,
2013-01-22 02:56:00,16.5,11.0,30.37,SSE,163,0.0,0.0,78,0.00,,,-99.99,Meteorologica,2013-01-22 08:56:00,
2013-01-22 03:01:00,16.4,11.0,30.37,SSE,163,0.0,0.0,78,0.00,,,-99.99,Meteorologica,2013-01-22 09:01:00,
2013-01-22 03:06:00,16.4,11.2,30.37,SSE,163,0.0,0.0,79,0.00,,,-99.99,Meteorologica,2013-01-22 09:06:00,
2013-01-22 03:11:00,16.5,11.3,30.37,SSE,163,0.0,0.0,79,0.00,,,-99.99,Meteorologica,2013-01-22 09:11:00,
2013-01-22 03:16:00,16.4,11.2,30.37,East,100,0.0,0.0,79,0.00,,,-99.99,Meteorologica,2013-01-22 09:16:00,
2013-01-22 03:21:00,16.5,11.3,30.36,East,100,0.0,0.0,79,0.00,,,-99.99,Meteorologica,2013-01-22 09:21:00,
2013-01-22 03:26:00,16.4,11.2,30.36,East,100,0.0,0.0,79,0.00,,,-99.99,Meteorologica,2013-01-22 09:26:00,
2013-01-22 03:31:00,16.3,11.2,30.36,East,100,0.0,0.0,79,0.00,,,-99.99,Meteorologica,2013-01-22 09:31:00,
2013-01-22 03:36:00,16.3,11.0,30.36,East,100,0.0,0.0,78,0.00,,,-99.99,Meteorologica,2013-01-22 09:36:00,
2013-01-22 03:41:00,16.3,10.7,30.37,East,100,0.0,0.0,78,0.00,,,-99.99,Meteorologica,2013-01-22 09:41:00,
2013-01-22 03:46:00,16.2,10.6,30.36,East,100,0.0,0.0,78,0.00,,,-99.99,Meteorologica,2013-01-22 09:46:00,
2013-01-22 03:51:00,16.3,10.9,30.36,East,100,0.0,0.0,78,0.00,,,-99.99,Meteorologica,2013-01-22 09:51:00,
2013-01-22 03:56:00,16.2,10.7,30.36,East,100,0.0,0.0,78,0.00,,,-99.99,Meteorologica,2013-01-22 09:56:00,
2013-01-22 04:01:00,16.3,10.9,30.36,East,100,0.0,0.0,78,0.00,,,-99.99,Meteorologica,2013-01-22 10:01:00,
2013-01-22 04:06:00,16.2,10.8,30.35,East,100,0.0,0.0,78,0.00,,,-99.99,Meteorologica,2013-01-22 10:06:00,
2013-01-22 04:11:00,16.1,10.9,30.35,East,100,0.0,0.0,79,0.00,,,-99.99,Meteorologica,2013-01-22 10:11:00,
2013-01-22 04:16:00,15.9,10.8,30.35,East,100,0.0,0.0,80,0.00,,,-99.99,Meteorologica,2013-01-22 10:16:00,
2013-01-22 04:21:00,15.9,11.0,30.36,East,100,0.0,0.0,80,0.00,,,-99.99,Meteorologica,2013-01-22 10:21:00,
2013-01-22 04:26:00,15.7,10.8,30.35,East,100,0.0,0.0,80,0.00,,,-99.99,Meteorologica,2013-01-22 10:26:00,
2013-01-22 04:31:00,15.6,10.9,30.34,East,100,0.0,0.0,81,0.00,,,-99.99,Meteorologica,2013-01-22 10:31:00,
2013-01-22 04:36:00,15.5,10.5,30.34,East,100,0.0,0.0,80,0.00,,,-99.99,Meteorologica,2013-01-22 10:36:00,
2013-01-22 04:41:00,15.3,10.2,30.34,East,100,0.0,0.0,79,0.00,,,-99.99,Meteorologica,2013-01-22 10:41:00,
2013-01-22 04:46:00,15.3,10.2,30.34,East,100,0.0,0.0,79,0.00,,,-99.99,Meteorologica,2013-01-22 10:46:00,
2013-01-22 04:51:00,15.2,10.2,30.33,East,100,0.0,0.0,80,0.00,,,-99.99,Meteorologica,2013-01-22 10:51:00,
2013-01-22 04:56:00,15.1,10.1,30.34,East,100,0.0,0.0,80,0.00,,,-99.99,Meteorologica,2013-01-22 10:56:00,
2013-01-22 05:02:00,15.0,10.1,30.34,East,100,0.0,0.0,80,0.00,,,-99.99,Meteorologica,2013-01-22 11:02:00,
2013-01-22 05:07:00,14.9,10.1,30.34,East,100,0.0,0.0,80,0.00,,,-99.99,Meteorologica,2013-01-22 11:07:00,
2013-01-22 05:12:00,14.7,10.1,30.34,East,100,0.0,0.0,81,0.00,,,-99.99,Meteorologica,2013-01-22 11:12:00,
2013-01-22 05:17:00,14.7,10.1,30.34,East,100,0.0,0.0,81,0.00,,,-99.99,Meteorologica,2013-01-22 11:17:00,
2013-01-22 05:23:00,14.5,9.9,30.34,East,100,0.0,0.0,81,0.00,,,-99.99,Meteorologica,2013-01-22 11:23:00,
2013-01-22 05:28:00,14.3,9.7,30.33,East,100,0.0,0.0,81,0.00,,,-99.99,Meteorologica,2013-01-22 11:28:00,
2013-01-22 05:33:00,14.2,9.5,30.34,East,100,0.0,0.0,81,0.00,,,-99.99,Meteorologica,2013-01-22 11:33:00,
2013-01-22 05:38:00,14.2,9.6,30.34,East,100,0.0,0.0,81,0.00,,,-99.99,Meteorologica,2013-01-22 11:38:00,
2013-01-22 05:43:00,14.0,9.5,30.34,ESE,114,0.0,5.8,81,0.00,,,-99.99,Meteorologica,2013-01-22 11:43:00,
2013-01-22 05:48:00,13.9,9.3,30.32,East,83,0.0,5.3,81,0.00,,,-99.99,Meteorologica,2013-01-22 11:48:00,
2013-01-22 05:53:00,13.7,9.1,30.33,ESE,102,2.2,5.6,81,0.00,,,-99.99,Meteorologica,2013-01-22 11:53:00,
2013-01-22 05:58:00,13.8,9.3,30.34,East,93,0.0,3.5,82,0.00,,,-99.99,Meteorologica,2013-01-22 11:58:00,
2013-01-22 06:03:00,13.7,9.1,30.35,East,93,0.0,0.0,81,0.00,,,-99.99,Meteorologica,2013-01-22 12:03:00,
2013-01-22 06:08:00,13.6,9.1,30.35,East,93,0.0,0.0,81,0.00,,,-99.99,Meteorologica,2013-01-22 12:08:00,
2013-01-22 06:13:00,13.6,9.1,30.34,East,93,0.0,0.0,81,0.00,,,-99.99,Meteorologica,2013-01-22 12:13:00,
2013-01-22 06:18:00,13.4,8.9,30.34,East,93,0.0,0.0,81,0.00,,,-99.99,Meteorologica,2013-01-22 12:18:00,
2013-01-22 06:23:00,13.4,8.8,30.34,East,93,0.0,0.0,81,0.00,,,-99.99,Meteorologica,2013-01-22 12:23:00,
2013-01-22 06:28:00,13.6,9.0,30.34,East,93,0.0,0.0,81,0.00,,,-99.99,Meteorologica,2013-01-22 12:28:00,
2013-01-22 06:33:00,13.6,8.9,30.35,East,93,0.0,0.0,81,0.00,,,-99.99,Meteorologica,2013-01-22 12:33:00,
2013-01-22 06:38:00,13.7,9.0,30.34,East,94,0.3,3.1,81,0.00,,,-99.99,Meteorologica,2013-01-22 12:38:00,
2013-01-22 06:43:00,13.6,8.9,30.35,East,94,0.4,3.2,81,0.00,,,-99.99,Meteorologica,2013-01-22 12:43:00,
2013-01-22 06:48:00,13.6,8.8,30.35,South,182,0.0,0.0,80,0.00,,,-99.99,Meteorologica,2013-01-22 12:48:00,
2013-01-22 06:53:00,13.5,8.7,30.34,ENE,70,1.5,6.8,80,0.00,,,-99.99,Meteorologica,2013-01-22 12:53:00,
2013-01-22 06:58:00,13.6,8.7,30.35,East,97,0.0,6.2,80,0.00,,,-99.99,Meteorologica,2013-01-22 12:58:00,
2013-01-22 07:03:00,13.5,8.7,30.35,ESE,110,0.0,4.8,80,0.00,,,-99.99,Meteorologica,2013-01-22 13:03:00,
2013-01-22 07:08:00,13.4,8.7,30.34,ESE,110,0.0,0.0,81,0.00,,,-99.99,Meteorologica,2013-01-22 13:08:00,
2013-01-22 07:13:00,13.5,8.9,30.35,ESE,110,0.0,0.0,81,0.00,,,-99.99,Meteorologica,2013-01-22 13:13:00,
2013-01-22 07:18:00,13.5,8.8,30.35,ESE,110,0.0,0.0,81,0.00,,,-99.99,Meteorologica,2013-01-22 13:18:00,
2013-01-22 07:24:00,13.6,8.8,30.35,ESE,110,0.0,0.0,80,0.00,,,-99.99,Meteorologica,2013-01-22 13:24:00,
2013-01-22 07:29:00,13.6,8.7,30.36,ESE,110,0.0,0.0,80,0.00,,,-99.99,Meteorologica,2013-01-22 13:29:00,
2013-01-22 07:34:00,13.6,8.7,30.37,ESE,110,0.0,0.0,80,0.00,,,-99.99,Meteorologica,2013-01-22 13:34:00,
2013-01-22 07:39:00,13.8,8.8,30.36,ESE,110,0.0,0.0,80,0.00,,,-99.99,Meteorologica,2013-01-22 13:39:00,
2013-01-22 07:44:00,13.8,8.4,30.36,ESE,115,5.8,6.4,78,0.00,,,-99.99,Meteorologica,2013-01-22 13:44:00,
2013-01-22 07:49:00,14.0,8.6,30.37,East,81,0.0,0.0,78,0.00,,,-99.99,Meteorologica,2013-01-22 13:49:00,
2013-01-22 07:54:00,14.2,8.8,30.37,East,81,0.0,0.0,78,0.00,,,-99.99,Meteorologica,2013-01-22 13:54:00,
2013-01-22 07:59:00,14.2,8.8,30.37,East,81,0.0,0.0,78,0.00,,,-99.99,Meteorologica,2013-01-22 13:59:00,
2013-01-22 08:04:00,14.3,8.8,30.37,East,81,0.0,0.0,78,0.00,,,-99.99,Meteorologica,2013-01-22 14:04:00,
2013-01-22 08:09:00,14.4,8.9,30.38,East,81,0.0,0.0,78,0.00,,,-99.99,Meteorologica,2013-01-22 14:09:00,
2013-01-22 08:15:00,14.5,8.6,30.38,SE,142,0.0,0.0,77,0.00,,,-99.99,Meteorologica,2013-01-22 14:15:00,
2013-01-22 08:20:00,14.4,8.5,30.38,SE,142,0.0,0.0,77,0.00,,,-99.99,Meteorologica,2013-01-22 14:20:00,
2013-01-22 08:25:00,14.6,8.6,30.37,ESE,112,1.1,5.6,76,0.00,,,-99.99,Meteorologica,2013-01-22 14:25:00,
2013-01-22 08:30:00,14.7,8.6,30.37,ENE,77,0.9,4.2,76,0.00,,,-99.99,Meteorologica,2013-01-22 14:30:00,
2013-01-22 08:35:00,14.8,8.8,30.36,SSE,152,0.6,3.5,76,0.00,,,-99.99,Meteorologica,2013-01-22 14:35:00,
2013-01-22 08:40:00,14.8,8.7,30.36,ESE,110,1.3,6.0,76,0.00,,,-99.99,Meteorologica,2013-01-22 14:40:00,
2013-01-22 08:45:00,14.7,8.7,30.36,East,87,1.6,4.5,76,0.00,,,-99.99,Meteorologica,2013-01-22 14:45:00,
2013-01-22 08:50:00,14.8,8.5,30.37,East,79,0.0,0.0,75,0.00,,,-99.99,Meteorologica,2013-01-22 14:50:00,
2013-01-22 08:55:00,14.8,8.5,30.38,ESE,118,1.5,6.4,75,0.00,,,-99.99,Meteorologica,2013-01-22 14:55:00,
2013-01-22 09:00:00,15.1,8.9,30.38,ESE,112,0.0,0.0,76,0.00,,,-99.99,Meteorologica,2013-01-22 15:00:00,
2013-01-22 09:05:00,15.2,8.7,30.38,ESE,112,0.0,0.0,74,0.00,,,-99.99,Meteorologica,2013-01-22 15:05:00,
2013-01-22 09:10:00,15.6,8.9,30.38,SE,128,0.0,0.0,74,0.00,,,-99.99,Meteorologica,2013-01-22 15:10:00,
2013-01-22 09:15:00,15.7,9.1,30.37,SE,128,0.0,0.0,74,0.00,,,-99.99,Meteorologica,2013-01-22 15:15:00,
2013-01-22 09:20:00,16.0,9.0,30.37,SE,128,6.7,11.1,73,0.00,,,-99.99,Meteorologica,2013-01-22 15:20:00,
2013-01-22 09:25:00,16.0,8.9,30.37,ESE,116,6.4,9.7,72,0.00,,,-99.99,Meteorologica,2013-01-22 15:25:00,
2013-01-22 09:30:00,16.3,9.2,30.38,East,91,4.8,7.5,73,0.00,,,-99.99,Meteorologica,2013-01-22 15:30:00,
2013-01-22 09:35:00,16.6,9.6,30.38,East,86,1.9,6.2,73,0.00,,,-99.99,Meteorologica,2013-01-22 15:35:00,
2013-01-22 09:40:00,16.6,9.3,30.38,ESE,119,7.8,12.7,72,0.00,,,-99.99,Meteorologica,2013-01-22 15:40:00,
2013-01-22 09:45:00,17.1,9.9,30.38,SE,128,6.5,9.9,72,0.00,,,-99.99,Meteorologica,2013-01-22 15:45:00,
2013-01-22 09:51:00,17.7,10.6,30.39,East,90,3.6,6.0,73,0.00,,,-99.99,Meteorologica,2013-01-22 15:51:00,
2013-01-22 09:56:00,17.7,10.1,30.38,ESE,111,5.7,9.0,71,0.00,,,-99.99,Meteorologica,2013-01-22 15:56:00,
2013-01-22 10:01:00,18.0,10.5,30.39,ESE,102,5.6,10.0,71,0.00,,,-99.99,Meteorologica,2013-01-22 16:01:00,
2013-01-22 10:06:00,18.5,10.8,30.39,SE,142,0.3,5.1,71,0.00,,,-99.99,Meteorologica,2013-01-22 16:06:00,
2013-01-22 10:11:00,19.0,10.8,30.40,SE,125,4.1,6.9,69,0.00,,,-99.99,Meteorologica,2013-01-22 16:11:00,
2013-01-22 10:16:00,19.4,11.1,30.39,SE,126,2.1,9.4,69,0.00,,,-99.99,Meteorologica,2013-01-22 16:16:00,
2013-01-22 10:21:00,19.9,11.5,30.39,SSE,147,1.8,5.8,69,0.00,,,-99.99,Meteorologica,2013-01-22 16:21:00,
2013-01-22 10:26:00,20.4,11.5,30.39,East,87,6.3,9.5,67,0.00,,,-99.99,Meteorologica,2013-01-22 16:26:00,
2013-01-22 10:31:00,20.5,11.4,30.39,ESE,114,0.8,6.7,67,0.00,,,-99.99,Meteorologica,2013-01-22 16:31:00,
2013-01-22 10:36:00,20.3,11.0,30.39,SE,145,5.9,8.7,66,0.00,,,-99.99,Meteorologica,2013-01-22 16:36:00,
2013-01-22 10:41:00,20.4,11.1,30.39,East,79,5.2,9.8,66,0.00,,,-99.99,Meteorologica,2013-01-22 16:41:00,
2013-01-22 10:46:00,20.6,11.1,30.39,ENE,72,7.1,10.8,66,0.00,,,-99.99,Meteorologica,2013-01-22 16:46:00,
2013-01-22 10:51:00,20.9,11.3,30.39,East,85,5.6,10.9,65,0.00,,,-99.99,Meteorologica,2013-01-22 16:51:00,
2013-01-22 10:56:00,20.8,10.9,30.39,SE,124,7.3,10.9,64,0.00,,,-99.99,Meteorologica,2013-01-22 16:56:00,
2013-01-22 11:01:00,20.8,11.3,30.39,SSE,153,7.2,11.7,66,0.00,,,-99.99,Meteorologica,2013-01-22 17:01:00,
2013-01-22 11:06:00,21.5,11.7,30.39,ENE,62,0.0,0.0,65,0.00,,,-99.99,Meteorologica,2013-01-22 17:06:00,
2013-01-22 11:11:00,21.4,11.7,30.38,SSE,150,2.7,7.7,65,0.00,,,-99.99,Meteorologica,2013-01-22 17:11:00,
2013-01-22 11:16:00,21.9,12.0,30.38,ESE,119,0.0,9.9,64,0.00,,,-99.99,Meteorologica,2013-01-22 17:16:00,
2013-01-22 11:21:00,22.3,12.0,30.38,East,83,0.0,3.0,64,0.00,,,-99.99,Meteorologica,2013-01-22 17:21:00,
2013-01-22 11:26:00,22.3,11.5,30.38,ESE,116,5.0,10.2,62,0.00,,,-99.99,Meteorologica,2013-01-22 17:26:00,
2013-01-22 11:31:00,22.7,12.3,30.37,South,175,1.3,8.9,63,0.00,,,-99.99,Meteorologica,2013-01-22 17:31:00,
2013-01-22 11:36:00,22.5,11.7,30.37,ESE,114,5.6,9.1,62,0.00,,,-99.99,Meteorologica,2013-01-22 17:36:00,
2013-01-22 11:41:00,22.8,11.8,30.36,ESE,102,6.9,10.4,62,0.00,,,-99.99,Meteorologica,2013-01-22 17:41:00,
2013-01-22 11:46:00,23.1,12.5,30.36,ESE,107,2.7,7.6,63,0.00,,,-99.99,Meteorologica,2013-01-22 17:46:00,
2013-01-22 11:51:00,23.7,12.8,30.35,SSE,158,0.5,6.3,62,0.00,,,-99.99,Meteorologica,2013-01-22 17:51:00,
2013-01-22 11:56:00,23.7,12.4,30.35,ESE,103,1.8,9.0,61,0.00,,,-99.99,Meteorologica,2013-01-22 17:56:00,
2013-01-22 12:01:00,24.0,12.5,30.35,SE,135,5.3,7.5,60,0.00,,,-99.99,Meteorologica,2013-01-22 18:01:00,
2013-01-22 12:06:00,24.5,12.6,30.35,SE,146,6.1,10.4,59,0.00,,,-99.99,Meteorologica,2013-01-22 18:06:00,
2013-01-22 12:11:00,24.5,12.7,30.34,SSE,159,1.6,5.0,60,0.00,,,-99.99,Meteorologica,2013-01-22 18:11:00,
2013-01-22 12:16:00,25.0,13.3,30.34,SSE,151,4.8,9.4,60,0.00,,,-99.99,Meteorologica,2013-01-22 18:16:00,
2013-01-22 12:21:00,25.1,13.0,30.33,SE,141,0.0,0.0,59,0.00,,,-99.99,Meteorologica,2013-01-22 18:21:00,
2013-01-22 12:26:00,25.6,13.4,30.33,SSE,162,5.3,7.9,59,0.00,,,-99.99,Meteorologica,2013-01-22 18:26:00,
2013-01-22 12:31:00,25.6,13.2,30.32,East,83,0.7,6.6,58,0.00,,,-99.99,Meteorologica,2013-01-22 18:31:00,
2013-01-22 12:37:00,25.8,13.4,30.32,ESE,118,5.2,7.6,59,0.00,,,-99.99,Meteorologica,2013-01-22 18:37:00,
2013-01-22 12:42:00,25.8,13.6,30.32,ESE,114,5.3,9.1,59,0.00,,,-99.99,Meteorologica,2013-01-22 18:42:00,
2013-01-22 12:48:00,25.8,13.3,30.32,ESE,111,5.7,10.1,58,0.00,,,-99.99,Meteorologica,2013-01-22 18:48:00,
2013-01-22 12:53:00,26.0,13.7,30.32,East,90,1.5,8.2,59,0.00,,,-99.99,Meteorologica,2013-01-22 18:53:00,
2013-01-22 12:58:00,26.3,13.9,30.31,SE,128,1.3,9.4,59,0.00,,,-99.99,Meteorologica,2013-01-22 18:58:00,
2013-01-22 13:04:00,26.6,13.9,30.31,ESE,108,1.7,8.1,58,0.00,,,-99.99,Meteorologica,2013-01-22 19:04:00,
2013-01-22 13:09:00,26.8,14.3,30.30,ESE,116,2.9,6.3,58,0.00,,,-99.99,Meteorologica,2013-01-22 19:09:00,
2013-01-22 13:14:00,26.6,14.0,30.30,SSE,153,7.5,9.7,58,0.00,,,-99.99,Meteorologica,2013-01-22 19:14:00,
2013-01-22 13:19:00,27.5,14.5,30.29,SSE,149,1.6,0.0,57,0.00,,,-99.99,Meteorologica,2013-01-22 19:19:00,
2013-01-22 13:24:00,28.2,14.4,30.29,ESE,119,0.4,0.0,55,0.00,,,-99.99,Meteorologica,2013-01-22 19:24:00,
2013-01-22 13:29:00,28.1,14.8,30.29,ESE,115,0.4,0.0,56,0.00,,,-99.99,Meteorologica,2013-01-22 19:29:00,
2013-01-22 13:34:00,28.3,14.8,30.28,ESE,115,0.0,0.0,56,0.00,,,-99.99,Meteorologica,2013-01-22 19:34:00,
2013-01-22 13:39:00,28.9,15.3,30.29,ESE,115,0.0,0.0,56,0.00,,,-99.99,Meteorologica,2013-01-22 19:39:00,
2013-01-22 13:44:00,28.9,14.7,30.29,ESE,115,3.6,5.2,54,0.00,,,-99.99,Meteorologica,2013-01-22 19:44:00,
2013-01-22 13:49:00,28.7,15.1,30.28,East,81,2.8,2.8,56,0.00,,,-99.99,Meteorologica,2013-01-22 19:49:00,
2013-01-22 13:54:00,29.1,15.6,30.28,East,90,0.0,0.0,56,0.00,,,-99.99,Meteorologica,2013-01-22 19:54:00,
2013-01-22 13:59:00,29.9,16.1,30.27,East,90,0.0,0.0,56,0.00,,,-99.99,Meteorologica,2013-01-22 19:59:00,
2013-01-22 14:04:00,30.4,15.6,30.27,SE,130,0.2,0.0,53,0.00,,,-99.99,Meteorologica,2013-01-22 20:04:00,
2013-01-22 14:09:00,29.7,15.2,30.27,ESE,110,4.7,6.0,54,0.00,,,-99.99,Meteorologica,2013-01-22 20:09:00,
2013-01-22 14:14:00,29.4,15.4,30.26,ESE,119,1.9,0.0,55,0.00,,,-99.99,Meteorologica,2013-01-22 20:14:00,
2013-01-22 14:19:00,30.0,15.6,30.25,SE,141,6.2,6.2,54,0.00,,,-99.99,Meteorologica,2013-01-22 20:19:00,
2013-01-22 14:24:00,30.0,15.5,30.25,East,94,0.0,0.0,54,0.00,,,-99.99,Meteorologica,2013-01-22 20:24:00,
2013-01-22 14:29:00,30.1,15.7,30.26,East,94,0.0,0.0,54,0.00,,,-99.99,Meteorologica,2013-01-22 20:29:00,
2013-01-22 14:34:00,30.9,16.4,30.25,ESE,117,0.0,0.0,54,0.00,,,-99.99,Meteorologica,2013-01-22 20:34:00,
2013-01-22 14:40:00,31.7,16.8,30.25,South,169,1.9,9.1,53,0.00,,,-99.99,Meteorologica,2013-01-22 20:40:00,
2013-01-22 14:45:00,32.2,17.1,30.26,South,169,0.0,0.0,53,0.00,,,-99.99,Meteorologica,2013-01-22 20:45:00,
2013-01-22 14:50:00,32.0,16.6,30.26,ENE,64,0.2,3.1,52,0.00,,,-99.99,Meteorologica,2013-01-22 20:50:00,
2013-01-22 14:55:00,31.9,16.5,30.26,ENE,64,0.0,0.0,52,0.00,,,-99.99,Meteorologica,2013-01-22 20:55:00,
2013-01-22 15:00:00,31.4,16.6,30.26,ENE,73,0.0,0.0,53,0.00,,,-99.99,Meteorologica,2013-01-22 21:00:00,
2013-01-22 15:05:00,31.3,16.7,30.26,ENE,73,0.0,0.0,54,0.00,,,-99.99,Meteorologica,2013-01-22 21:05:00,
2013-01-22 15:10:00,31.6,16.4,30.27,East,101,0.0,0.0,53,0.00,,,-99.99,Meteorologica,2013-01-22 21:10:00,
2013-01-22 15:15:00,31.5,16.6,30.27,SE,142,1.2,4.8,53,0.00,,,-99.99,Meteorologica,2013-01-22 21:15:00,
2013-01-22 15:20:00,31.3,16.3,30.27,SE,142,0.0,0.0,53,0.00,,,-99.99,Meteorologica,2013-01-22 21:20:00,
2013-01-22 15:25:00,30.8,16.4,30.27,SE,142,0.0,0.0,54,0.00,,,-99.99,Meteorologica,2013-01-22 21:25:00,
2013-01-22 15:30:00,31.1,16.8,30.26,East,80,0.0,0.0,55,0.00,,,-99.99,Meteorologica,2013-01-22 21:30:00,
2013-01-22 15:32:00,31.3,16.7,30.26,ESE,108,0.4,3.3,54,0.00,,,-99.99,Meteorologica,2013-01-22 21:32:00,
2013-01-22 15:37:00,31.4,17.0,30.25,SSE,163,0.0,0.0,54,0.00,,,-99.99,Meteorologica,2013-01-22 21:37:00,
2013-01-22 15:42:00,31.5,17.0,30.25,ESE,119,0.0,6.0,54,0.00,,,-99.99,Meteorologica,2013-01-22 21:42:00,
2013-01-22 15:47:00,31.6,16.8,30.25,ESE,119,0.0,0.0,53,0.00,,,-99.99,Meteorologica,2013-01-22 21:47:00,
2013-01-22 15:52:00,31.5,16.7,30.26,ESE,119,0.0,0.0,54,0.00,,,-99.99,Meteorologica,2013-01-22 21:52:00,
2013-01-22 15:57:00,31.5,16.9,30.26,ESE,119,0.0,0.0,54,0.00,,,-99.99,Meteorologica,2013-01-22 21:57:00,
2013-01-22 16:02:00,31.5,17.0,30.26,ESE,113,0.1,0.0,54,0.00,,,-99.99,Meteorologica,2013-01-22 22:02:00,
2013-01-22 16:07:00,31.6,17.3,30.26,ESE,111,0.0,0.0,55,0.00,,,-99.99,Meteorologica,2013-01-22 22:07:00,
2013-01-22 16:12:00,31.8,17.1,30.26,ESE,111,0.0,0.0,54,0.00,,,-99.99,Meteorologica,2013-01-22 22:12:00,
2013-01-22 16:18:00,31.5,17.2,30.25,ESE,111,0.0,0.0,55,0.00,,,-99.99,Meteorologica,2013-01-22 22:18:00,
2013-01-22 16:23:00,31.5,17.4,30.25,South,175,0.0,6.0,55,0.00,,,-99.99,Meteorologica,2013-01-22 22:23:00,
2013-01-22 16:28:00,31.5,17.4,30.25,South,175,0.0,0.0,55,0.00,,,-99.99,Meteorologica,2013-01-22 22:28:00,
2013-01-22 16:33:00,31.6,17.7,30.25,South,175,0.0,0.0,56,0.00,,,-99.99,Meteorologica,2013-01-22 22:33:00,
2013-01-22 16:38:00,31.7,17.8,30.24,South,175,0.0,0.0,56,0.00,,,-99.99,Meteorologica,2013-01-22 22:38:00,
2013-01-22 16:43:00,31.7,17.7,30.24,ESE,110,0.0,4.2,55,0.00,,,-99.99,Meteorologica,2013-01-22 22:43:00,
2013-01-22 16:48:00,31.6,17.7,30.25,SE,131,0.0,5.9,55,0.00,,,-99.99,Meteorologica,2013-01-22 22:48:00,
2013-01-22 16:53:00,31.5,17.7,30.24,SE,131,0.0,0.0,56,0.00,,,-99.99,Meteorologica,2013-01-22 22:53:00,
2013-01-22 16:58:00,31.5,17.9,30.25,SE,131,0.0,0.0,56,0.00,,,-99.99,Meteorologica,2013-01-22 22:58:00,
2013-01-22 17:03:00,31.4,17.9,30.24,SE,131,0.0,0.0,56,0.00,,,-99.99,Meteorologica,2013-01-22 23:03:00,
2013-01-22 17:08:00,31.4,17.9,30.24,SE,131,0.0,0.0,57,0.00,,,-99.99,Meteorologica,2013-01-22 23:08:00,
2013-01-22 17:13:00,31.3,17.9,30.24,SE,131,0.0,0.0,57,0.00,,,-99.99,Meteorologica,2013-01-22 23:13:00,
2013-01-22 17:18:00,31.1,17.9,30.25,SE,131,0.0,0.0,57,0.00,,,-99.99,Meteorologica,2013-01-22 23:18:00,
2013-01-22 17:23:00,31.0,18.1,30.25,SE,131,0.0,0.0,58,0.00,,,-99.99,Meteorologica,2013-01-22 23:23:00,
2013-01-22 17:29:00,30.8,18.1,30.25,SE,131,0.0,0.0,58,0.00,,,-99.99,Meteorologica,2013-01-22 23:29:00,
2013-01-22 17:34:00,30.7,18.1,30.25,SE,131,0.0,0.0,59,0.00,,,-99.99,Meteorologica,2013-01-22 23:34:00,
2013-01-22 17:39:00,30.5,18.1,30.25,SE,131,0.0,0.0,59,0.00,,,-99.99,Meteorologica,2013-01-22 23:39:00,
2013-01-22 17:44:00,30.3,18.2,30.25,SE,131,0.0,0.0,60,0.00,,,-99.99,Meteorologica,2013-01-22 23:44:00,
2013-01-22 17:49:00,29.9,17.9,30.26,SE,131,0.0,0.0,60,0.00,,,-99.99,Meteorologica,2013-01-22 23:49:00,
2013-01-22 17:54:00,29.6,17.7,30.26,SE,131,0.0,0.0,60,0.00,,,-99.99,Meteorologica,2013-01-22 23:54:00,
2013-01-22 17:59:00,29.4,17.9,30.26,SE,131,0.0,0.0,61,0.00,,,-99.99,Meteorologica,2013-01-22 23:59:00,
2013-01-22 18:04:00,29.1,17.7,30.26,SE,131,0.0,0.0,61,0.00,,,-99.99,Meteorologica,2013-01-23 00:04:00,
2013-01-22 18:09:00,28.7,17.9,30.26,SE,131,0.0,0.0,63,0.00,,,-99.99,Meteorologica,2013-01-23 00:09:00,
2013-01-22 18:14:00,28.5,17.7,30.27,SE,131,0.0,0.0,63,0.00,,,-99.99,Meteorologica,2013-01-23 00:14:00,
2013-01-22 18:19:00,28.1,17.4,30.27,SE,131,0.0,0.0,63,0.00,,,-99.99,Meteorologica,2013-01-23 00:19:00,
2013-01-22 18:24:00,27.8,17.3,30.27,SE,131,0.0,0.0,64,0.00,,,-99.99,Meteorologica,2013-01-23 00:24:00,
2013-01-22 18:29:00,27.5,17.4,30.27,SE,131,0.0,0.0,65,0.00,,,-99.99,Meteorologica,2013-01-23 00:29:00,
2013-01-22 18:34:00,27.2,17.2,30.26,SE,131,0.0,0.0,65,0.00,,,-99.99,Meteorologica,2013-01-23 00:34:00,
2013-01-22 18:39:00,27.0,17.2,30.26,SE,131,0.0,0.0,66,0.00,,,-99.99,Meteorologica,2013-01-23 00:39:00,
2013-01-22 18:44:00,26.8,17.3,30.27,SE,131,0.0,0.0,66,0.00,,,-99.99,Meteorologica,2013-01-23 00:44:00,
2013-01-22 18:49:00,26.5,17.4,30.27,SE,131,0.0,0.0,68,0.00,,,-99.99,Meteorologica,2013-01-23 00:49:00,
2013-01-22 18:54:00,26.1,17.7,30.27,SE,131,0.0,0.0,70,0.00,,,-99.99,Meteorologica,2013-01-23 00:54:00,
2013-01-22 18:59:00,25.6,17.9,30.28,SE,131,0.0,0.0,72,0.00,,,-99.99,Meteorologica,2013-01-23 00:59:00,
2013-01-22 19:04:00,25.2,17.6,30.28,SE,131,0.0,0.0,72,0.00,,,-99.99,Meteorologica,2013-01-23 01:04:00,
2013-01-22 19:09:00,25.0,17.5,30.27,SE,131,0.0,0.0,72,0.00,,,-99.99,Meteorologica,2013-01-23 01:09:00,
2013-01-22 19:14:00,24.8,17.4,30.28,SE,131,0.0,0.0,73,0.00,,,-99.99,Meteorologica,2013-01-23 01:14:00,
2013-01-22 19:19:00,24.7,17.5,30.28,SE,131,0.0,0.0,73,0.00,,,-99.99,Meteorologica,2013-01-23 01:19:00,
2013-01-22 19:24:00,24.5,17.5,30.28,SE,131,0.0,0.0,74,0.00,,,-99.99,Meteorologica,2013-01-23 01:24:00,
2013-01-22 19:29:00,24.3,17.5,30.28,SE,131,0.0,0.0,74,0.00,,,-99.99,Meteorologica,2013-01-23 01:29:00,
2013-01-22 19:34:00,24.1,17.2,30.28,SE,131,0.0,0.0,74,0.00,,,-99.99,Meteorologica,2013-01-23 01:34:00,
2013-01-22 19:39:00,23.9,17.1,30.28,SE,131,0.0,0.0,74,0.00,,,-99.99,Meteorologica,2013-01-23 01:39:00,
2013-01-22 19:44:00,23.7,17.1,30.27,SE,131,0.0,0.0,75,0.00,,,-99.99,Meteorologica,2013-01-23 01:44:00,
2013-01-22 19:49:00,23.5,17.0,30.27,SE,131,0.0,0.0,76,0.00,,,-99.99,Meteorologica,2013-01-23 01:49:00,
2013-01-22 19:54:00,23.3,16.9,30.27,SE,131,0.0,0.0,76,0.00,,,-99.99,Meteorologica,2013-01-23 01:54:00,
2013-01-22 19:59:00,23.2,16.9,30.27,SE,131,0.0,0.0,76,0.00,,,-99.99,Meteorologica,2013-01-23 01:59:00,
2013-01-22 20:04:00,23.2,16.8,30.27,SE,131,0.0,0.0,75,0.00,,,-99.99,Meteorologica,2013-01-23 02:04:00,
2013-01-22 20:09:00,23.1,17.1,30.27,SE,131,0.0,0.0,77,0.00,,,-99.99,Meteorologica,2013-01-23 02:09:00,
2013-01-22 20:14:00,22.9,22.9,30.27,SE,131,0.0,0.0,100,0.00,,,-99.99,Meteorologica,2013-01-23 02:14:00,
2013-01-22 20:19:00,22.6,16.8,30.27,SE,131,0.0,0.0,78,0.00,,,-99.99,Meteorologica,2013-01-23 02:19:00,
2013-01-22 20:24:00,22.2,17.0,30.27,SE,131,0.0,0.0,79,0.00,,,-99.99,Meteorologica,2013-01-23 02:24:00,
2013-01-22 20:29:00,21.9,21.8,30.28,SE,131,0.0,0.0,99,0.00,,,-99.99,Meteorologica,2013-01-23 02:29:00,
2013-01-22 20:34:00,21.7,16.7,30.27,SE,131,0.0,0.0,80,0.00,,,-99.99,Meteorologica,2013-01-23 02:34:00,
2013-01-22 20:39:00,21.5,16.6,30.27,SE,131,0.0,0.0,81,0.00,,,-99.99,Meteorologica,2013-01-23 02:39:00,
2013-01-22 20:44:00,21.4,16.7,30.27,SE,131,0.0,0.0,81,0.00,,,-99.99,Meteorologica,2013-01-23 02:44:00,
2013-01-22 20:49:00,21.2,16.8,30.29,SE,131,0.0,0.0,82,0.00,,,-99.99,Meteorologica,2013-01-23 02:49:00,
2013-01-22 20:54:00,21.0,16.8,30.29,SE,131,0.0,0.0,83,0.00,,,-99.99,Meteorologica,2013-01-23 02:54:00,
2013-01-22 20:59:00,20.9,16.6,30.29,SE,131,0.0,0.0,83,0.00,,,-99.99,Meteorologica,2013-01-23 02:59:00,
2013-01-22 21:04:00,20.8,16.4,30.29,SE,131,0.0,0.0,82,0.00,,,-99.99,Meteorologica,2013-01-23 03:04:00,
2013-01-22 21:09:00,20.7,16.3,30.28,SE,131,0.0,0.0,83,0.00,,,-99.99,Meteorologica,2013-01-23 03:09:00,
2013-01-22 21:14:00,20.6,15.8,30.28,SE,131,0.0,0.0,81,0.00,,,-99.99,Meteorologica,2013-01-23 03:14:00,
2013-01-22 21:19:00,21.2,15.6,30.28,SE,131,0.0,0.0,78,0.00,,,-99.99,Meteorologica,2013-01-23 03:19:00,
2013-01-22 21:24:00,21.6,15.6,30.28,SE,131,0.0,0.0,77,0.00,,,-99.99,Meteorologica,2013-01-23 03:24:00,
2013-01-22 21:30:00,21.7,15.7,30.28,SE,131,0.0,0.0,77,0.00,,,-99.99,Meteorologica,2013-01-23 03:30:00,
2013-01-22 21:35:00,21.5,15.5,30.28,SE,131,0.0,0.0,77,0.00,,,-99.99,Meteorologica,2013-01-23 03:35:00,
2013-01-22 21:40:00,21.5,15.5,30.28,SE,131,0.0,0.0,77,0.00,,,-99.99,Meteorologica,2013-01-23 03:40:00,
2013-01-22 21:45:00,21.4,15.4,30.28,SE,131,0.0,0.0,77,0.00,,,-99.99,Meteorologica,2013-01-23 03:45:00,
2013-01-22 21:50:00,21.4,15.4,30.28,SE,131,0.0,0.0,77,0.00,,,-99.99,Meteorologica,2013-01-23 03:50:00,
2013-01-22 21:55:00,21.3,15.4,30.28,SE,131,0.0,0.0,77,0.00,,,-99.99,Meteorologica,2013-01-23 03:55:00,
2013-01-22 22:00:00,21.2,15.3,30.28,SE,131,0.0,0.0,77,0.00,,,-99.99,Meteorologica,2013-01-23 04:00:00,
2013-01-22 22:05:00,21.3,15.3,30.27,SE,131,0.0,0.0,77,0.00,,,-99.99,Meteorologica,2013-01-23 04:05:00,
2013-01-22 22:10:00,21.2,15.2,30.27,SE,131,0.0,0.0,77,0.00,,,-99.99,Meteorologica,2013-01-23 04:10:00,
2013-01-22 22:15:00,21.2,15.2,30.27,SE,131,0.0,0.0,77,0.00,,,-99.99,Meteorologica,2013-01-23 04:15:00,
2013-01-22 22:20:00,21.1,15.1,30.27,SE,131,0.0,0.0,77,0.00,,,-99.99,Meteorologica,2013-01-23 04:20:00,
2013-01-22 22:25:00,21.0,15.1,30.27,SE,131,0.0,0.0,77,0.00,,,-99.99,Meteorologica,2013-01-23 04:25:00,
2013-01-22 22:30:00,20.9,15.0,30.27,SE,131,0.0,0.0,77,0.00,,,-99.99,Meteorologica,2013-01-23 04:30:00,
2013-01-22 22:35:00,20.8,14.9,30.27,SE,131,0.0,0.0,77,0.00,,,-99.99,Meteorologica,2013-01-23 04:35:00,
2013-01-22 22:40:00,20.7,14.9,30.27,SE,131,0.0,0.0,77,0.00,,,-99.99,Meteorologica,2013-01-23 04:40:00,
2013-01-22 22:45:00,20.6,14.8,30.27,SE,131,0.0,0.0,78,0.00,,,-99.99,Meteorologica,2013-01-23 04:45:00,
2013-01-22 22:50:00,20.7,14.9,30.26,SE,131,0.0,0.0,77,0.00,,,-99.99,Meteorologica,2013-01-23 04:50:00,
2013-01-22 22:55:00,20.8,15.0,30.26,SE,131,0.0,0.0,77,0.00,,,-99.99,Meteorologica,2013-01-23 04:55:00,
2013-01-22 23:02:00,20.6,14.8,30.26,SE,131,0.0,0.0,78,0.00,,,-99.99,Meteorologica,2013-01-23 05:02:00,
2013-01-22 23:03:00,20.6,14.8,30.27,SE,131,0.0,0.0,78,0.00,,,-99.99,Meteorologica,2013-01-23 05:03:00,
2013-01-22 23:04:00,20.6,14.8,30.27,SE,131,0.0,0.0,78,0.00,,,-99.99,Meteorologica,2013-01-23 05:04:00,
2013-01-22 23:08:00,20.5,14.8,30.26,SE,131,0.0,0.0,78,0.00,,,-99.99,Meteorologica,2013-01-23 05:08:00,
2013-01-22 23:13:00,20.3,14.6,30.26,SE,131,0.0,0.0,78,0.00,,,-99.99,Meteorologica,2013-01-23 05:13:00,
2013-01-22 23:18:00,20.3,14.7,30.27,SE,131,0.0,0.0,78,0.00,,,-99.99,Meteorologica,2013-01-23 05:18:00,
2013-01-22 23:23:00,20.2,14.7,30.27,SE,131,0.0,0.0,78,0.00,,,-99.99,Meteorologica,2013-01-23 05:23:00,
2013-01-22 23:28:00,20.0,14.5,30.26,SE,131,0.0,0.0,78,0.00,,,-99.99,Meteorologica,2013-01-23 05:28:00,
2013-01-22 23:33:00,19.8,14.5,30.27,SE,131,0.0,0.0,79,0.00,,,-99.99,Meteorologica,2013-01-23 05:33:00,
2013-01-22 23:39:00,19.6,14.5,30.27,SE,131,0.0,0.0,80,0.00,,,-99.99,Meteorologica,2013-01-23 05:39:00,
2013-01-22 23:44:00,19.5,14.4,30.27,SE,131,0.0,0.0,80,0.00,,,-99.99,Meteorologica,2013-01-23 05:44:00,
2013-01-22 23:49:00,19.4,14.3,30.27,SE,131,0.0,0.0,80,0.00,,,-99.99,Meteorologica,2013-01-23 05:49:00,
2013-01-22 23:54:00,19.4,14.4,30.27,SE,131,0.0,0.0,80,0.00,,,-99.99,Meteorologica,2013-01-23 05:54:00,
2013-01-22 23:59:00,19.3,14.4,30.27,SE,131,0.0,0.0,80,0.00,,,-99.99,Meteorologica,2013-01-23 05:59:00,